Location: Auckland
(36.8670°S, 174.7670°E)
Time: 14:14:40
(UTC+12:00)

A-11 Canister half - Pass Details

Date: 27 July 2019
Orbit: 1526 x 1683 km, 47.3° (Epoch: 23 August)

Event Time Altitude Azimuth Distance (km) Brightness Sun altitude
Rises 09:20:04 0° 270° (W) 4,696 11.1 18.5°
Reaches altitude 10° 09:23:16 10° 264° (W) 3,727 10.6 19.0°
Maximum altitude 09:32:19 48° 191° (S) 1,976 9.5 20.3°
Drops below altitude 10° 09:41:40 10° 117° (ESE) 3,839 11.4 21.5°
Sets 09:45:02 0° 111° (ESE) 4,847 11.9 22.0°
